Location: Bernay
(48.6766°N, 2.9386°E)
Time: 00:53:14
(UTC+00:00)

Cosmos 1603 - Pass Details

Date: 12 January 2026
Orbit: 831 x 857 km, 71.0° (Epoch: 6 February)

Event Time Altitude Azimuth Distance (km) Brightness Sun altitude
Rises 18:46:07 0° 210° (SSW) 3,392 7.3 -24.0°
Reaches altitude 10° 18:48:33 10° 212° (SSW) 2,457 6.6 -24.4°
Maximum altitude 18:54:12 78° 299° (WNW) 861 3.7 -25.4°
Enters shadow 18:56:01 45° 17° (NNE) 1,136 4.1 -25.7°
